GW2661 Weather Reports


time (UTC)temp
C
wind
direction
speed
KPH
gust
KPH
rain 1hr
cm
rain 24hr
cm
rain mn
cm
humidity
%
barometer
mb
20260506155438 16 13 0.0 0.0 0.00 0.00 0.00 79 1021.2
20260506153605 15 0 0.0 1.6 0.00 0.00 0.00 82 1021.1
20260506153102 15 15 0.0 0.0 0.00 0.00 0.00 82 1020.9
20260506152559 15 6 0.0 1.6 0.00 0.00 0.00 84 1021.2
20260506152057 15 8 0.0 1.6 0.00 0.00 0.00 84 1021.2
20260506151555 14 286 6.4 8.0 0.00 0.00 0.00 84 1020.9
20260506151052 13 347 4.8 4.8 0.00 0.00 0.00 85 1021.1
20260506150548 13 327 0.0 8.0 0.00 0.00 0.00 86 1021.1
20260506150045 13 345 0.0 3.2 0.00 0.00 0.00 86 1020.8
20260506145542 13 351 1.6 8.0 0.00 0.00 0.00 86 1021.0
20260506145039 13 354 1.6 4.8 0.00 0.00 0.00 86 1020.9
20260506144536 13 330 1.6 4.8 0.00 0.00 0.00 86 1020.8
20260506144033 13 351 0.0 1.6 0.00 0.00 0.00 87 1021.1
20260506143531 13 337 3.2 3.2 0.00 0.00 0.00 86 1021.0
20260506143029 12 311 3.2 9.7 0.00 0.00 0.00 86 1020.7
20260506142526 12 279 4.8 8.0 0.00 0.00 0.00 86 1020.7
20260506142024 12 19 3.2 4.8 0.00 0.00 0.00 86 1020.9
20260506141522 12 352 1.6 3.2 0.00 0.00 0.00 87 1020.8
20260506141020 12 354 0.0 3.2 0.00 0.00 0.00 87 1020.7
20260506140517 12 312 1.6 3.2 0.00 0.00 0.00 87 1020.5
20260506140015 12 299 4.8 12.9 0.00 0.00 0.00 87 1020.7
20260506135511 12 331 1.6 3.2 0.00 0.00 0.00 87 1020.4
20260506135007 12 351 0.0 3.2 0.00 0.00 0.00 87 1020.6
20260506134503 12 347 1.6 3.2 0.00 0.00 0.00 87 1020.5
20260506134000 12 309 4.8 4.8 0.00 0.00 0.00 87 1020.5
20260506133457 12 337 1.6 4.8 0.00 0.00 0.00 87 1020.5
20260506132954 12 327 6.4 8.0 0.00 0.00 0.00 87 1020.5
20260506132451 12 280 6.4 9.7 0.00 0.00 0.00 87 1020.4
20260506131948 12 348 0.0 3.2 0.00 0.00 0.00 87 1020.5
20260506131445 12 283 4.8 4.8 0.00 0.00 0.00 87 1020.3
20260506130942 12 348 0.0 3.2 0.00 0.00 0.00 87 1020.6
20260506130438 12 349 1.6 3.2 0.00 0.00 0.00 87 1020.3
20260506125936 12 344 1.6 9.7 0.00 0.00 0.00 87 1020.3
20260506125434 12 320 1.6 4.8 0.00 0.00 0.00 87 1020.3
20260506124932 12 358 1.6 3.2 0.00 0.00 0.00 87 1020.4
20260506124429 12 310 3.2 3.2 0.00 0.00 0.00 87 1020.2
20260506123927 12 336 1.6 3.2 0.00 0.00 0.00 87 1020.1
20260506123425 12 342 3.2 4.8 0.00 0.00 0.00 86 1020.3
20260506122922 12 275 6.4 9.7 0.00 0.00 0.00 86 1020.3
20260506122419 12 309 4.8 9.7 0.00 0.00 0.00 86 1020.1
20260506121918 12 289 8.0 9.7 0.00 0.00 0.00 86 1020.2
20260506121414 12 318 1.6 3.2 0.00 0.00 0.00 86 1020.2
20260506120911 12 355 1.6 3.2 0.00 0.00 0.00 86 1020.0
20260506120409 12 289 8.0 9.7 0.00 0.00 0.00 86 1020.1
20260506115906 12 284 3.2 4.8 0.00 0.00 0.00 86 1020.0
20260506115404 12 8 1.6 3.2 0.00 0.00 0.00 86 1020.0
20260506114902 12 328 4.8 11.3 0.00 0.00 0.00 86 1019.9
20260506114359 12 338 3.2 9.7 0.00 0.00 0.00 86 1020.0
20260506113858 12 355 4.8 4.8 0.00 0.00 0.00 86 1019.9
20260506113355 12 336 3.2 11.3 0.00 0.00 0.00 86 1019.9
20260506112851 12 318 1.6 4.8 0.00 0.00 0.00 86 1019.9
20260506112348 12 358 1.6 9.7 0.00 0.00 0.00 86 1019.8
20260506111845 12 294 4.8 4.8 0.00 0.00 0.00 86 1019.7
20260506111344 12 306 4.8 9.7 0.00 0.00 0.00 86 1019.7
20260506110841 12 294 6.4 11.3 0.00 0.00 0.00 86 1019.7
20260506110338 12 322 4.8 4.8 0.00 0.00 0.00 86 1019.5
20260506105835 12 313 3.2 3.2 0.00 0.00 0.00 86 1019.7
20260506105331 12 357 1.6 3.2 0.00 0.00 0.00 86 1019.8
20260506104829 12 350 1.6 1.6 0.00 0.00 0.00 86 1019.5
20260506104326 12 354 0.0 1.6 0.00 0.00 0.00 86 1019.6
20260506103824 12 359 0.0 1.6 0.00 0.00 0.00 86 1019.5
20260506103321 12 321 1.6 8.0 0.00 0.00 0.00 86 1019.7
20260506102819 12 299 4.8 4.8 0.00 0.00 0.00 86 1019.6
20260506102316 12 303 4.8 4.8 0.00 0.00 0.00 86 1019.4
20260506101814 12 0 0.0 8.0 0.00 0.00 0.00 86 1019.6
20260506101309 12 0 1.6 9.7 0.00 0.00 0.00 86 1019.6
20260506100808 12 354 3.2 3.2 0.00 0.00 0.00 86 1019.5
20260506100306 12 7 1.6 4.8 0.00 0.00 0.00 86 1019.4
20260506095804 12 343 1.6 8.0 0.00 0.00 0.00 86 1019.5
20260506095300 12 351 1.6 4.8 0.00 0.00 0.00 86 1019.5
20260506094757 12 311 4.8 4.8 0.00 0.00 0.00 86 1019.5
20260506094255 12 340 1.6 1.6 0.00 0.00 0.00 86 1019.6
20260506093754 12 343 1.6 1.6 0.00 0.00 0.00 86 1019.5
20260506093250 12 352 0.0 3.2 0.00 0.00 0.00 86 1019.6
20260506092748 12 357 0.0 1.6 0.00 0.00 0.00 86 1019.6
20260506092246 12 358 0.0 0.0 0.00 0.00 0.00 86 1019.7
20260506091743 12 356 0.0 3.2 0.00 0.00 0.00 86 1019.5
20260506091240 12 354 0.0 1.6 0.00 0.00 0.00 86 1019.5
20260506090738 12 336 1.6 3.2 0.00 0.00 0.00 86 1019.6
20260506090235 12 312 1.6 3.2 0.00 0.00 0.00 86 1019.3
20260506085732 12 309 1.6 3.2 0.00 0.00 0.00 86 1019.3
20260506085228 12 354 0.0 8.0 0.00 0.00 0.00 86 1019.7
20260506084725 12 354 0.0 8.0 0.00 0.00 0.00 86 1019.7
20260506084221 12 316 3.2 8.0 0.00 0.00 0.00 86 1019.3
20260506083718 12 8 1.6 4.8 0.00 0.00 0.00 86 1019.5
20260506083216 12 288 3.2 4.8 0.00 0.00 0.00 86 1019.6
20260506082713 12 292 4.8 8.0 0.00 0.00 0.00 86 1019.6
20260506082208 12 328 0.0 1.6 0.00 0.00 0.00 86 1019.3
20260506081706 12 324 3.2 4.8 0.00 0.00 0.00 86 1019.6
20260506081204 12 339 1.6 4.8 0.00 0.00 0.00 86 1019.3
20260506080701 12 338 1.6 4.8 0.00 0.00 0.00 86 1019.3
20260506080158 12 291 4.8 8.0 0.00 0.00 0.00 86 1019.4
20260506073142 12 300 1.6 4.8 0.00 0.00 0.00 86 1019.2
20260506072638 12 354 3.2 9.7 0.00 0.00 0.00 86 1019.2
20260506072136 12 306 3.2 8.0 0.00 0.00 0.00 86 1019.2
20260506071633 12 297 3.2 11.3 0.00 0.00 0.00 86 1019.3
20260506071131 12 352 1.6 4.8 0.00 0.00 0.00 86 1019.1
20260506070628 12 321 1.6 8.0 0.00 0.00 0.00 86 1019.2
20260506070125 12 285 4.8 9.7 0.00 0.15 0.15 86 1019.0
20260506062103 12 291 4.8 4.8 0.00 0.15 0.15 86 1018.9
20260506061558 12 282 6.4 11.3 0.00 0.15 0.15 86 1018.9
20260506061056 12 271 4.8 9.7 0.00 0.15 0.15 86 1018.7
20260506060554 12 322 4.8 11.3 0.00 0.15 0.15 86 1018.8
20260506051023 12 280 4.8 12.9 0.00 0.15 0.15 86 1018.5
20260506050521 12 310 8.0 9.7 0.00 0.15 0.15 86 1018.6
20260506045011 12 353 3.2 8.0 0.00 0.15 0.15 86 1018.2
20260506044509 12 320 8.0 9.7 0.00 0.15 0.15 86 1018.3
20260506044006 12 305 4.8 9.7 0.00 0.15 0.15 86 1018.3
20260506043503 12 316 4.8 8.0 0.00 0.15 0.15 86 1018.3
20260506043001 12 358 1.6 3.2 0.00 0.15 0.15 86 1018.2
20260506042500 13 323 0.0 1.6 0.00 0.15 0.15 86 1018.3
20260506041957 12 342 4.8 4.8 0.00 0.15 0.15 86 1017.9
20260506041455 12 3 0.0 0.0 0.00 0.15 0.15 86 1017.9
20260506040952 13 3 0.0 1.6 0.00 0.15 0.15 86 1017.7
20260506040450 13 1 0.0 0.0 0.00 0.15 0.15 86 1017.8
20260506035946 13 8 0.0 0.0 0.00 0.15 0.15 86 1017.5
20260506035443 13 261 4.8 8.0 0.00 0.15 0.15 85 1017.7
20260506034939 13 336 6.4 9.7 0.00 0.15 0.15 85 1017.5
20260506034438 13 350 8.0 11.3 0.00 0.15 0.15 85 1017.2
20260506033934 13 287 3.2 11.3 0.00 0.15 0.15 85 1017.0
20260506033432 13 357 0.0 4.8 0.00 0.15 0.15 85 1017.1
20260506032928 13 14 0.0 9.7 0.00 0.15 0.15 84 1017.0
20260506032425 13 292 11.3 14.5 0.00 0.15 0.15 84 1016.9
20260506031921 13 296 9.7 11.3 0.00 0.15 0.15 84 1016.9
20260506031419 14 288 9.7 11.3 0.00 0.15 0.15 83 1016.9
20260506030917 14 348 3.2 9.7 0.00 0.15 0.15 83 1016.9
20260506030415 14 289 3.2 4.8 0.00 0.15 0.15 83 1016.7
20260506025911 14 280 8.0 11.3 0.00 0.15 0.15 83 1016.6
20260506025408 14 285 6.4 9.7 0.00 0.15 0.15 83 1016.4
20260506024905 14 350 0.0 4.8 0.00 0.15 0.15 83 1016.5
20260506024402 14 12 4.8 12.9 0.00 0.15 0.15 83 1016.5
20260506023857 15 326 6.4 12.9 0.00 0.15 0.15 83 1016.4
20260506023355 15 287 4.8 4.8 0.00 0.15 0.15 83 1016.5
20260506022851 15 301 1.6 3.2 0.00 0.15 0.15 82 1016.6
20260506022349 15 312 11.3 17.7 0.00 0.15 0.15 82 1016.4
20260506021847 15 324 3.2 12.9 0.00 0.15 0.15 82 1016.3
20260506021343 15 275 6.4 9.7 0.00 0.15 0.15 82 1016.2
20260506020840 15 262 6.4 9.7 0.00 0.15 0.15 82 1016.3
20260506020338 15 286 1.6 8.0 0.00 0.15 0.15 82 1016.2
20260506015836 15 254 1.6 3.2 0.00 0.15 0.15 82 1016.2
20260506015333 15 265 4.8 9.7 0.00 0.15 0.15 82 1015.9
20260506014829 15 286 11.3 17.7 0.00 0.15 0.15 82 1016.0
20260506014326 15 283 8.0 11.3 0.00 0.15 0.15 81 1016.0
20260506013823 15 307 4.8 11.3 0.00 0.15 0.15 81 1016.3
20260506013320 16 104 6.4 14.5 0.00 0.15 0.15 80 1016.0
20260506012817 15 262 8.0 16.1 0.00 0.15 0.15 81 1016.1
20260506012314 16 247 11.3 14.5 0.00 0.15 0.15 81 1016.0
20260506011811 16 215 9.7 14.5 0.00 0.15 0.15 80 1016.1
20260506011308 16 32 9.7 16.1 0.00 0.15 0.15 79 1016.0
20260506010805 16 4 6.4 8.0 0.00 0.15 0.15 79 1016.0
20260506010303 16 286 17.7 22.5 0.00 0.15 0.15 79 1016.0
20260506005800 17 299 8.0 20.9 0.00 0.15 0.15 79 1015.9
20260506005256 16 321 3.2 9.7 0.00 0.15 0.15 79 1015.9
20260506004752 17 337 4.8 12.9 0.00 0.15 0.15 78 1015.9
20260506004251 17 306 4.8 9.7 0.00 0.15 0.15 77 1015.9
20260506003746 17 302 9.7 12.9 0.00 0.15 0.15 78 1015.9
20260506003243 16 271 1.6 12.9 0.00 0.15 0.15 79 1015.7
20260506002739 16 292 4.8 14.5 0.00 0.15 0.15 79 1015.7
20260506002235 16 276 12.9 17.7 0.00 0.15 0.15 78 1015.5
20260506001731 16 305 1.6 12.9 0.00 0.15 0.15 79 1015.7
20260506001229 16 320 3.2 17.7 0.00 0.15 0.15 79 1015.5
20260506000725 16 267 4.8 17.7 0.00 0.15 0.15 79 1015.7
20260506000223 17 253 4.8 22.5 0.00 0.15 0.15 79 1015.6
20260505235720 17 40 4.8 11.3 0.00 0.15 0.15 78 1015.6
20260505235218 17 254 3.2 9.7 0.00 0.15 0.15 80 1015.6
20260505234714 17 135 4.8 12.9 0.00 0.15 0.15 79 1015.6
20260505234212 16 303 9.7 12.9 0.00 0.15 0.15 80 1015.5
20260505233708 16 225 8.0 11.3 0.00 0.15 0.15 80 1015.7
20260505233206 17 228 3.2 9.7 0.00 0.15 0.15 79 1015.5
20260505232703 17 147 8.0 12.9 0.00 0.15 0.15 79 1015.5
20260505232201 17 291 0.0 8.0 0.00 0.15 0.15 78 1015.5
20260505231657 17 354 0.0 8.0 0.00 0.15 0.15 78 1015.8
20260505231156 17 348 1.6 8.0 0.00 0.15 0.15 78 1015.5
20260505230654 17 323 1.6 12.9 0.00 0.15 0.15 78 1015.4
20260505230150 17 278 3.2 9.7 0.00 0.15 0.15 78 1015.5
20260505225646 17 311 3.2 9.7 0.00 0.15 0.15 78 1015.6
20260505225143 17 34 6.4 12.9 0.00 0.15 0.15 78 1015.4
20260505224639 17 225 1.6 11.3 0.00 0.15 0.15 78 1015.6
20260505224137 17 314 6.4 14.5 0.00 0.15 0.15 77 1015.4
20260505223634 17 289 4.8 9.7 0.00 0.15 0.15 76 1015.5
20260505223130 17 294 8.0 12.9 0.00 0.15 0.15 76 1015.5
20260505222626 18 280 4.8 8.0 0.00 0.15 0.15 75 1015.6
20260505222123 17 288 3.2 9.7 0.00 0.15 0.15 76 1015.5
20260505221620 17 314 3.2 12.9 0.00 0.15 0.15 77 1015.7
20260505221116 17 303 4.8 12.9 0.00 0.15 0.15 76 1015.5
20260505220614 18 285 4.8 9.7 0.00 0.15 0.15 76 1015.7
20260505220112 18 286 1.6 4.8 0.00 0.15 0.15 75 1015.6
20260505215609 18 305 6.4 11.3 0.00 0.15 0.15 74 1015.8
20260505215107 17 312 1.6 3.2 0.00 0.15 0.15 77 1015.6
20260505214605 18 153 0.0 3.2 0.00 0.15 0.15 75 1015.7
20260505214102 18 199 1.6 4.8 0.00 0.15 0.15 74 1015.7
20260505213559 17 352 1.6 1.6 0.00 0.15 0.15 75 1015.8
20260505213056 18 2 0.0 3.2 0.00 0.15 0.15 74 1015.9
20260505212552 18 352 1.6 9.7 0.00 0.15 0.15 73 1015.8
20260505212050 18 338 1.6 4.8 0.00 0.15 0.15 74 1015.8
20260505211546 18 313 3.2 4.8 0.00 0.15 0.15 73 1015.7
20260505211043 18 6 0.0 1.6 0.00 0.15 0.15 72 1016.2
20260505210539 18 27 1.6 9.7 0.00 0.15 0.15 73 1015.9
20260505210037 18 354 3.2 4.8 0.00 0.15 0.15 72 1015.9
20260505205535 18 293 1.6 4.8 0.00 0.15 0.15 72 1016.0
20260505205032 18 217 8.0 14.5 0.00 0.15 0.15 73 1016.1
20260505204529 17 214 3.2 8.0 0.00 0.15 0.15 76 1016.1
20260505204026 17 0 3.2 11.3 0.00 0.15 0.15 77 1016.2
20260505203523 17 35 6.4 11.3 0.00 0.15 0.15 75 1016.2
20260505203020 16 303 1.6 11.3 0.00 0.15 0.15 77 1016.0
20260505202516 17 337 3.2 8.0 0.00 0.15 0.15 78 1016.0
20260505202012 17 295 3.2 12.9 0.00 0.15 0.15 78 1016.3
20260505201510 17 273 1.6 9.7 0.00 0.15 0.15 78 1016.3
20260505201007 16 306 4.8 8.0 0.00 0.15 0.15 77 1016.1
20260505200505 16 261 4.8 17.7 0.00 0.15 0.15 78 1016.4
20260505200000 16 317 4.8 14.5 0.00 0.15 0.15 78 1016.2
20260505195457 16 304 3.2 12.9 0.00 0.15 0.15 79 1016.3
20260505194955 16 284 11.3 14.5 0.00 0.15 0.15 78 1016.3
20260505194452 17 294 8.0 9.7 0.00 0.15 0.15 78 1016.2
20260505193952 17 355 8.0 11.3 0.00 0.15 0.15 77 1016.4
20260505193450 16 40 1.6 9.7 0.00 0.15 0.15 78 1016.4
20260505192947 16 290 4.8 12.9 0.00 0.15 0.15 79 1016.3
20260505192446 16 322 1.6 12.9 0.00 0.15 0.15 79 1016.3
20260505191942 16 271 6.4 16.1 0.00 0.15 0.15 79 1016.2
20260505191441 16 248 8.0 11.3 0.00 0.15 0.15 80 1016.2
20260505190938 16 282 0.0 8.0 0.00 0.15 0.15 80 1016.5
20260505190433 16 301 8.0 14.5 0.00 0.15 0.15 79 1016.4
20260505185928 17 280 11.3 14.5 0.00 0.15 0.15 78 1016.1
20260505185426 17 312 4.8 8.0 0.00 0.15 0.15 76 1016.0
20260505184922 16 316 11.3 20.9 0.00 0.15 0.15 79 1016.3
20260505184419 17 47 6.4 12.9 0.00 0.15 0.15 78 1016.2
20260505183916 17 307 1.6 3.2 0.00 0.15 0.15 74 1016.3
20260505183413 16 263 11.3 27.4 0.00 0.15 0.15 78 1016.2
20260505182909 16 282 4.8 22.5 0.00 0.15 0.15 79 1016.4
20260505182406 15 280 9.7 14.5 0.00 0.15 0.15 80 1016.1
20260505181903 15 300 9.7 12.9 0.00 0.15 0.15 82 1016.2
20260505181400 15 291 11.3 20.9 0.00 0.15 0.15 82 1016.2
20260505180857 15 263 11.3 14.5 0.00 0.15 0.15 82 1016.5
20260505180353 15 291 4.8 17.7 0.00 0.15 0.15 82 1016.4
20260505175850 15 282 11.3 12.9 0.00 0.15 0.15 81 1016.4
20260505175346 14 323 4.8 8.0 0.00 0.15 0.15 83 1016.2
20260505174843 14 307 9.7 17.7 0.00 0.15 0.15 83 1016.3
20260505174340 15 309 6.4 20.9 0.00 0.15 0.15 84 1016.1
20260505173836 14 313 3.2 9.7 0.00 0.15 0.15 84 1016.1
20260505173333 14 316 6.4 16.1 0.00 0.15 0.15 83 1015.9
20260505172830 14 282 8.0 9.7 0.00 0.15 0.15 83 1016.0
20260505172328 14 251 4.8 8.0 0.00 0.15 0.15 84 1015.9
20260505171827 15 299 6.4 11.3 0.00 0.15 0.15 84 1016.0
20260505171324 14 324 11.3 25.7 0.00 0.15 0.15 85 1016.0
20260505170821 14 336 4.8 8.0 0.00 0.15 0.15 85 1016.2
20260505170318 14 289 4.8 14.5 0.00 0.15 0.15 85 1015.8
20260505165813 14 280 3.2 11.3 0.00 0.15 0.15 85 1015.9
20260505165309 15 273 3.2 11.3 0.00 0.15 0.15 86 1015.7
20260505164805 13 245 9.7 16.1 0.00 0.15 0.15 86 1016.3
20260505164302 13 312 4.8 11.3 0.00 0.15 0.15 87 1015.9
20260505163800 13 23 0.0 1.6 0.00 0.15 0.15 88 1016.0
20260505163258 13 284 4.8 8.0 0.00 0.15 0.15 88 1015.9
20260505162756 13 10 1.6 8.0 0.00 0.15 0.15 88 1015.8
20260505162252 13 299 8.0 14.5 0.00 0.15 0.15 88 1015.9
20260505161749 13 297 12.9 20.9 0.00 0.15 0.15 88 1015.9
20260505161247 13 251 1.6 4.8 0.00 0.15 0.15 88 1015.8
20260505160744 13 17 1.6 12.9 0.00 0.15 0.15 88 1015.7
20260505160242 13 325 6.4 12.9 0.00 0.15 0.15 88 1015.8